Date String (YYYY-MM-DD hh:mm:ss) UTC,Instrument flags,absolute air pressure of the measurement (hPa),sample flow rate (lpm),inlet stack bypass flow (lpm),air temperature of the measurement (°C),ambient temperature measured by the external sensor (°C),aerosol sample conditioner tube jacket temperature (°C),OPC LED temperature (°C),internal box temperature (°C),relative humidity of the measurement (%),span deviation,mass concentration of particles derived from Lorenz-Mie calculation of OPC scattering (μg/m³),mass concentration of particles derived from Lorenz-Mie calculation of OPC scattering (μg/m³),mass concentration of particles derived from Lorenz-Mie calculation of OPC scattering (μg/m³)
DateTimeUTC,F1_M11,P_M11,Q1_M11,Q2_M11,T1_M11,T2_M11,T3_M11,T4_M11,T5_M11,U1_M11,ZSPAN_M11,X0_M11,X2_M11,X1_M11
2023-06-09 11:00:00,SystemResetWarning,0830.1,5.00,000.00,029.4,027.9,000.0,037.9,030.9,21.1,0000.0,0010.83,0003.33,0002.09
2023-06-09 11:01:00,SystemResetWarning,0830.1,5.01,000.00,029.4,027.9,000.0,037.9,031.0,21.2,0000.0,0011.03,0003.41,0002.15
2023-06-09 11:02:00,SystemResetWarning,0830.2,5.00,000.00,029.4,027.9,000.0,037.9,031.0,21.1,0000.0,0011.38,0003.43,0002.19
2023-06-09 11:03:00,SystemResetWarning,0830.1,4.99,000.00,029.4,027.9,000.0,037.9,031.0,21.1,0000.0,0010.87,0003.37,0002.21
2023-06-09 11:04:00,SystemResetWarning,0830.2,4.99,000.00,029.4,027.9,000.0,037.9,031.0,20.6,0000.0,0010.17,0003.34,0002.23
2023-06-09 11:05:00,SystemResetWarning,0830.2,5.01,000.00,029.5,028.0,000.0,037.9,031.0,20.3,0000.0,0009.81,0003.31,0002.23
2023-06-09 11:06:00,SystemResetWarning,0830.2,5.01,000.00,029.5,028.0,000.0,037.9,031.0,20.4,0000.0,0009.53,0003.30,0002.22
2023-06-09 11:07:00,SystemResetWarning,0830.2,5.00,000.00,029.5,028.0,000.0,038.0,031.0,20.5,0000.0,0008.92,0003.28,0002.21
2023-06-09 11:08:00,SystemResetWarning,0830.1,5.00,000.00,029.5,028.0,000.0,038.0,031.0,20.5,0000.0,0008.28,0003.23,0002.19
2023-06-09 11:09:00,SystemResetWarning,0830.1,5.00,000.00,029.5,028.0,000.0,038.0,031.0,20.4,0000.0,0008.00,0003.19,0002.15
2023-06-09 11:10:00,SystemResetWarning,0830.1,5.00,000.00,029.5,028.0,000.0,038.0,031.0,20.4,0000.0,0007.88,0003.15,0002.15
2023-06-09 11:11:00,SystemResetWarning,0830.1,4.99,000.00,029.5,028.0,000.0,038.0,031.1,20.3,0000.0,0007.32,0003.07,0002.12
2023-06-09 11:12:00,SystemResetWarning,0830.1,5.00,000.00,029.5,028.0,000.0,038.0,031.1,20.2,0000.0,0006.52,0002.92,0002.07
2023-06-09 11:13:00,SystemResetWarning,0830.1,4.99,000.00,029.5,028.0,000.0,038.0,031.0,20.1,0000.0,0005.75,0002.84,0002.03
2023-06-09 11:14:00,SystemResetWarning,0830.1,5.00,000.00,029.5,028.0,000.0,038.0,031.1,20.2,0000.0,0005.46,0002.86,0002.01
2023-06-09 11:15:00,SystemResetWarning,0830.1,4.99,000.00,029.5,028.0,000.0,038.0,031.0,20.2,0000.0,0005.47,0002.83,0002.00
2023-06-09 11:16:00,SystemResetWarning,0830.1,5.00,000.00,029.5,028.0,000.0,038.0,031.0,20.3,0000.0,0005.81,0002.83,0002.00
2023-06-09 11:17:00,SystemResetWarning,0830.1,5.00,000.00,029.5,028.0,000.0,038.0,031.0,20.3,0000.0,0007.04,0002.85,0002.02
2023-06-09 11:18:00,SystemResetWarning,0830.1,5.00,000.00,029.5,028.0,000.0,038.0,031.0,20.3,0000.0,0007.51,0002.88,0002.03
2023-06-09 11:19:00,SystemResetWarning,0830.1,5.00,000.00,029.5,028.0,000.0,038.0,031.0,20.4,0000.0,0007.19,0002.95,0002.05
2023-06-09 11:20:00,SystemResetWarning,0830.1,5.00,000.00,029.5,028.0,000.0,038.1,031.0,20.3,0000.0,0007.31,0002.99,0002.06
2023-06-09 11:21:00,SystemResetWarning,0830.1,5.00,000.00,029.5,028.0,000.0,038.1,031.0,20.2,0000.0,0007.33,0003.00,0002.04
2023-06-09 11:22:00,SystemResetWarning,0830.1,5.01,000.00,029.5,028.0,000.0,038.1,031.0,20.3,0000.0,0007.40,0003.03,0002.04
2023-06-09 11:23:00,SystemResetWarning,0830.1,5.00,000.00,029.5,028.0,000.0,038.1,031.0,20.3,0000.0,0007.40,0003.04,0002.06
2023-06-09 11:24:00,SystemResetWarning,0830.1,5.00,000.00,029.5,028.0,000.0,038.1,031.1,20.4,0000.0,0007.57,0003.08,0002.07
2023-06-09 11:25:00,SystemResetWarning,0830.3,4.99,000.00,029.5,028.0,000.0,038.1,031.1,20.2,0000.0,0007.55,0003.05,0002.07
2023-06-09 11:26:00,SystemResetWarning,0830.3,4.99,000.00,029.5,028.0,000.0,038.1,031.1,20.2,0000.0,0008.43,0003.06,0002.06
2023-06-09 11:27:00,SystemResetWarning,0830.2,5.00,000.00,029.5,028.0,000.0,038.1,031.1,20.6,0000.0,0008.26,0003.09,0002.07
2023-06-09 11:28:00,SystemResetWarning,0830.2,5.00,000.00,029.6,028.0,000.0,038.1,031.1,20.7,0000.0,0007.74,0003.14,0002.08
2023-06-09 11:29:00,SystemResetWarning,0830.1,5.00,000.00,029.6,028.0,000.0,038.1,031.1,20.7,0000.0,0007.62,0003.19,0002.09
2023-06-09 11:30:00,SystemResetWarning,0830.1,5.00,000.00,029.5,028.0,000.0,038.1,031.1,20.6,0000.0,0008.22,0003.22,0002.10
2023-06-09 11:31:00,SystemResetWarning,0830.1,5.01,000.00,029.5,028.0,000.0,038.1,031.0,20.7,0000.0,0008.57,0003.22,0002.13
2023-06-09 11:32:00,SystemResetWarning,0830.1,5.00,000.00,029.6,028.0,000.0,038.1,031.1,20.7,0000.0,0009.34,0003.22,0002.17
2023-06-09 11:33:00,SystemResetWarning,0830.1,5.00,000.00,029.6,028.0,000.0,038.1,031.0,20.7,0000.0,0009.32,0003.24,0002.19
2023-06-09 11:34:00,SystemResetWarning,0830.1,5.00,000.00,029.6,028.0,000.0,038.1,031.1,20.7,0000.0,0009.40,0003.28,0002.22
2023-06-09 11:35:00,SystemResetWarning,0830.1,5.00,000.00,029.6,028.0,000.0,038.1,031.0,20.8,0000.0,0009.23,0003.29,0002.24
2023-06-09 11:36:00,SystemResetWarning,0830.1,4.99,000.00,029.6,028.0,000.0,038.1,031.1,20.8,0000.0,0009.23,0003.32,0002.29
2023-06-09 11:37:00,SystemResetWarning,0830.1,4.99,000.00,029.6,028.0,000.0,038.1,031.1,20.8,0000.0,0008.49,0003.36,0002.34
2023-06-09 11:38:00,SystemResetWarning,0830.1,5.00,000.00,029.6,028.0,000.0,038.1,031.1,20.8,0000.0,0008.49,0003.36,0002.37
2023-06-09 11:39:00,SystemResetWarning,0830.1,5.01,000.00,029.6,028.0,000.0,038.1,031.1,20.9,0000.0,0008.41,0003.33,0002.39
2023-06-09 11:40:00,SystemResetWarning,0830.1,5.01,000.00,029.6,028.0,000.0,038.1,031.1,21.0,0000.0,0008.35,0003.30,0002.41
2023-06-09 11:41:00,SystemResetWarning,0830.1,5.00,000.00,029.6,028.0,000.0,038.1,031.1,21.0,0000.0,0008.18,0003.32,0002.45
2023-06-09 11:42:00,SystemResetWarning,0830.1,5.00,000.00,029.6,028.1,000.0,038.1,031.1,20.4,0000.0,0008.12,0003.32,0002.49
2023-06-09 11:43:00,SystemResetWarning,0830.1,5.00,000.00,029.6,028.0,000.0,038.1,031.1,19.4,0000.0,0007.20,0003.35,0002.49
2023-06-09 11:44:00,SystemResetWarning,0830.1,4.99,000.00,029.6,028.0,000.0,038.1,031.0,18.2,0000.0,0007.30,0003.37,0002.47
2023-06-09 11:45:00,SystemResetWarning,0830.1,5.00,000.00,029.6,028.0,000.0,038.1,031.0,18.6,0000.0,0007.28,0003.35,0002.46
2023-06-09 11:46:00,SystemResetWarning,0830.1,5.00,000.00,029.6,028.0,000.0,038.1,031.0,18.4,0000.0,0007.16,0003.30,0002.44
2023-06-09 11:47:00,SystemResetWarning,0830.1,5.00,000.00,029.6,028.0,000.0,038.1,031.0,18.3,0000.0,0007.25,0003.30,0002.41
2023-06-09 11:48:00,SystemResetWarning,0830.1,5.00,000.00,029.6,028.0,000.0,038.1,031.1,18.4,0000.0,0007.06,0003.26,0002.37
2023-06-09 11:49:00,SystemResetWarning,0830.1,5.00,000.00,029.6,028.0,000.0,038.1,031.1,20.2,0000.0,0006.83,0003.24,0002.36
2023-06-09 11:50:00,SystemResetWarning,0830.1,5.01,000.00,029.6,028.0,000.0,038.2,031.1,20.8,0000.0,0006.82,0003.24,0002.37
2023-06-09 11:51:00,SystemResetWarning,0830.1,5.00,000.00,029.6,028.0,000.0,038.2,031.1,20.4,0000.0,0006.94,0003.23,0002.36
2023-06-09 11:52:00,SystemResetWarning,0830.1,4.99,000.00,029.6,028.0,000.0,038.2,031.1,20.2,0000.0,0006.86,0003.23,0002.33
2023-06-09 11:53:00,SystemResetWarning,0830.1,4.99,000.00,029.6,028.0,000.0,038.1,031.1,19.9,0000.0,0006.40,0003.22,0002.30
2023-06-09 11:54:00,SystemResetWarning,0830.1,4.99,000.00,029.6,028.0,000.0,038.2,031.1,19.6,0000.0,0006.34,0003.23,0002.30
2023-06-09 11:55:00,SystemResetWarning,0830.1,5.00,000.00,029.6,028.0,000.0,038.2,031.1,19.4,0000.0,0006.36,0003.25,0002.34
2023-06-09 11:56:00,SystemResetWarning,0830.1,5.01,000.00,029.6,028.0,000.0,038.2,031.1,19.3,0000.0,0006.70,0003.28,0002.37
2023-06-09 11:57:00,SystemResetWarning,0830.1,5.01,000.00,029.6,028.0,000.0,038.2,031.1,19.7,0000.0,0007.21,0003.37,0002.42
2023-06-09 11:58:00,SystemResetWarning,0830.1,5.01,000.00,029.6,028.0,000.0,038.2,031.1,19.6,0000.0,0007.35,0003.35,0002.44
2023-06-09 11:59:00,SystemResetWarning,0830.1,5.00,000.00,029.6,028.0,000.0,038.2,031.1,19.4,0000.0,0007.60,0003.38,0002.49
